Погода в Нижней Пойме

Россия / Красноярский край     56°09′51″N   97°12′12″E
темп.,
°C
ветер,
м/с
пор.,
м/с
влажн.,
%
обл.,
%
осадки,
мм/ч
давл.,
гПа
погр.,
м
26 февраля, пт
пт2601:00−18з31089100 0.1 1022314
04:00−21зюз229356 0.0 102437
07:00−21ююз249773 0.0 1027118
10:00−16з41084100 0.0 1027945
13:00−16з5970100 0.0 10261391
16:00−17з4880100 0.1 10261583
19:00−20зюз51284100 0.3 10301287
22:00−22зюз2994100 0.1 1033915
27 февраля, сб
сб2701:00−22зюз41087100 0.1 1034784
04:00−23зюз31096100 0.1 1034645
07:00−23зюз31095100 0.1 1035980
10:00−21з51088100 0.1 10351301
13:00−19з51084100 0.2 10341421
16:00−19з4885100 0.1 10341279
19:00−21зюз1299100 0.3 103525
22:00−21зюз2698100 0.2 1036255
28 февраля, вс
вс2801:00−22юз2798100 0.3 1036258
04:00−22зюз3897100 0.1 1037456
07:00−23зюз3897100 0.3 1039476
10:00−21з4990100 0.1 1039892
13:00−18з4887100 0.2 10381183
16:00−18з4788100 0.2 10361162
19:00−20з1299100 0.4 103720
22:00−21юз1199100 0.3 103720
1 марта, пн
пн101:00−21з1199100 0.4 103520
04:00−22ююв0099100 0.1 103520
07:00−24вюв119996 0.1 103320
10:00−20вюв139380 0.0 1030233
13:00−15в238485 0.0 1027567
16:00−14в3488100 0.1 1024574
19:00−17всв3795100 0.1 1022294
22:00−19св3896100 0.3 1022290
2 марта, вт
вт201:00−21св3697100 0.4 1021238
04:00−23св3696100 0.1 1021236
07:00−24св3696100 0.1 1021241
10:00−22всв3796100 0.1 1019267
13:00−18всв4895100 0.4 1018387
16:00−16всв4994100 0.5 1017530
19:00−16всв4995100 1.3 1017609
22:00−18всв41095100 0.6 1017527